Regional Weather Roundup
Issued by NWS Columbia, SC

Home | Current Version | Previous Version | Text Only | Print | Product List | Glossary On
Versions: 1 2 3 4 5 6 7 8 9 10 11 12 13 14 15 16 17 18 19 20 21 22 23 24 25 26 27 28
000
ASUS42 KCAE 282310
RWRCAE
REGIONAL WEATHER ROUNDUP
NATIONAL WEATHER SERVICE COLUMBIA SC
700 PM EDT FRI APR 28 2017

NOTE: "FAIR" INDICATES FEW OR NO CLOUDS BELOW 12,000 FEET WITH NO
SIGNIFICANT WEATHER AND/OR OBSTRUCTIONS TO VISIBILITY.

NOT ALL STATIONS ARE QUALITY CONTROLLED BY THE NATIONAL
WEATHER SERVICE. USE DATA WITH CAUTION...ESPECIALLY
DEWPOINT OBSERVATIONS.

SCZ001>056-GAZ040-063>065-077-290000-
...UPSTATE SOUTH CAROLINA...

CITY           SKY/WX    TMP DP  RH WIND       PRES   REMARKS
ANDERSON       SUNNY     82  65  56 S8        30.05S
LIBERTY        CLEAR     80  67  64 CALM      30.06S
SPARTANBURG    SUNNY     81  63  54 CALM      30.05S
CLEMSON        SUNNY     82  67  60 S3        30.07S
GREENVILLE     MOSUNNY   82  64  54 SW9       30.07S
GREENWOOD      SUNNY     84  64  50 S10       30.06S
GREER          SUNNY     81  64  56 S8        30.05S
ROCK HILL      SUNNY     83  66  56 SW7       30.06S
CHESTER        CLEAR     82  64  54 CALM      30.06S
LAURENS        CLEAR     82  68  61 S3        30.05S


...CENTRAL SOUTH CAROLINA...

CITY           SKY/WX    TMP DP  RH WIND       PRES   REMARKS
COLUMBIA APT   MOSUNNY   89  67  47 S9        30.03S
COLUMBIA OWENS SUNNY     88  67  49 S9        30.04S
MCENTIRE ANGB  MOSUNNY   87  69  56 SE6       30.05S
ORANGEBURG     SUNNY     86  71  60 S12       30.05S
SUMTER SHAW    SUNNY     87  68  54 S9        30.03S
NEWBERRY       CLEAR     86  68  54 S3        30.07F
AIKEN          FAIR      86  68  54 S7        30.08S
BARNWELL       FAIR      90  72  55 SE9       30.05S HX  96
MANNING        FAIR      82  72  69 S8G22     30.07S
CAMDEN         FAIR      86  68  54 VRB6      30.05S
LANCASTER      CLEAR     84  68  58 S7        30.05S


...EASTERN AND COASTAL SOUTH CAROLINA...

CITY           SKY/WX    TMP DP  RH WIND       PRES   REMARKS
MYRTLE BEACH   PTSUNNY   77  75  94 S14       30.12
N MYRTLE BCH   MOSUNNY   76  74  93 S15       30.11S
CONWAY         FAIR      81  73  78 S12       30.09S HAZE
MARION         FAIR      82  72  69 S10       30.07S
HARTSVILLE     FAIR      84  68  58 S7        30.05S
FLORENCE       SUNNY     86  72  62 S9        30.06R
DARLINGTON     SUNNY     86  70  58 S9        30.06S
CHARLESTON APT MOSUNNY   80  72  76 S12       30.10R
MOUNT PLEASANT FAIR      79  75  89 S13       30.11S
WALTERBORO     CLEAR     81  72  74 S10       30.08S
BEAUFORT       SUNNY     79  75  87 S10       30.08R


...EASTERN GEORGIA...

CITY           SKY/WX    TMP DP  RH WIND       PRES   REMARKS
AUGUSTA BUSH F SUNNY     89  68  49 S8        30.02R
AUGUSTA DANIEL SUNNY     89  65  44 S10       30.04S
THOMSON        SUNNY     85  66  52 W3        30.09S
WASHINGTON     FAIR      86  70  58 SW5       30.05S
CLAXTON        FAIR      87  75  67 E6        30.04R HX  96
SYLVANIA       CLEAR    N/A N/A N/A SE6       30.06R
STATESBORO     SUNNY     89  71  55 SE6       30.05R
SAVANNAH       SUNNY     84  68  58 S13       30.07R


...SOUTHERN NORTH CAROLINA...

CITY           SKY/WX    TMP DP  RH WIND       PRES   REMARKS
CHARLOTTE      MOSUNNY   83  65  54 SW9       30.06S
MONROE         SUNNY     83  66  56 VRB3      30.05S
WADESBORO      CLEAR     85  67  53 SW3       30.04S
ROCKINGHAM     CLEAR     85  69  58 S7        30.05S
ASHEVILLE      MOSUNNY   75  58  55 S12       30.10S

$$




USA.gov is the U.S. government's official web portal to all federal, state and local government web resources and services.